Weather History for Winfield, KS

Change the Weather History Date:

Friday, October 4, 2013

  Actual Average Record
Temperature  
Mean Temperature 74 °F -  
Max Temperature 88 °F 72 °F 89 °F (2005)
Min Temperature 57 °F 50 °F 36 °F (2014)
Cooling Degree Days 8    
Growing Degree Days 24 (Base 50)    
Moisture  
Dew Point 64 °F    
Average Humidity 77    
Maximum Humidity 100    
Minimum Humidity 46    
Precipitation  
Precipitation 0.81 in - - ()
Sea Level Pressure  
Sea Level Pressure 29.82 in    
Wind  
Wind Speed 17 mph (SSE)    
Max Wind Speed 26 mph    
Max Gust Speed 36 mph    
Visibility 9 miles    
Events Rain , Thunderstorm    
Averages and records for this station are not official NWS values.
T = Trace of Precipitation, MM = Missing Value Source: NWS Daily Summary

Daily Weather History Graph

Daily Weather History Graph

Search for Another Location

Airport:

Trip Planner

Search our weather history database for the weather conditions in past years. The results will help you decide how hot, cold, wet, or windy it might be!

Date:

Astronomy

Oct. 04, 2013 Rise Set
Actual Time 7:26 AM CDT 7:06 PM CDT
Civil Twilight 7:00 AM CDT 7:32 PM CDT
Nautical Twilight 6:30 AM CDT 8:02 PM CDT
Astronomical Twilight 5:59 AM CDT 8:32 PM CDT
Moon 7:02 AM CDT (10/4) 6:50 PM CDT (10/4)
Length of Visible Light 12h 32m
Length of Day
11h 40m
Waning Crescent, 0% of the Moon is Illuminated
Oct 4
Waning Crescent
Oct 4
New
Oct 11
First Quarter
Oct 18
Full
Oct 26
Last Quarter

Hourly Weather History & Observations

Time (CDT) Temp. Heat Index Dew Point Humidity Pressure Visibility Wind Dir Wind Speed Gust Speed Precip Events Conditions
12:54 AM 75.0 °F - 66.9 °F 76% 29.73 in 10.0 mi SSE 15.0 mph - N/A   Clear
1:54 AM 75.9 °F - 66.9 °F 74% 29.73 in 10.0 mi South 18.4 mph 29.9 mph N/A   Clear
2:54 AM 75.0 °F - 68.0 °F 79% 29.75 in 10.0 mi South 20.7 mph 28.8 mph N/A   Clear
3:54 AM 75.0 °F - 68.0 °F 79% 29.73 in 10.0 mi South 21.9 mph 28.8 mph N/A   Clear
4:54 AM 75.0 °F - 69.1 °F 82% 29.73 in 10.0 mi South 17.3 mph 27.6 mph N/A   Clear
5:54 AM 73.9 °F - 69.1 °F 85% 29.73 in 10.0 mi South 20.7 mph 32.2 mph N/A   Clear
6:54 AM 73.0 °F - 69.1 °F 87% 29.73 in 10.0 mi SSE 18.4 mph - N/A   Clear
7:54 AM 73.0 °F - 70.0 °F 90% 29.74 in 10.0 mi SSE 20.7 mph 27.6 mph N/A   Clear
8:54 AM 75.0 °F - 70.0 °F 84% 29.76 in 10.0 mi South 20.7 mph 29.9 mph N/A   Partly Cloudy
9:54 AM 78.1 °F - 70.0 °F 76% 29.76 in 10.0 mi South 26.5 mph 35.7 mph N/A   Clear
10:54 AM 78.1 °F - 70.0 °F 76% 29.78 in 10.0 mi South 17.3 mph 29.9 mph N/A   Partly Cloudy
11:54 AM 82.0 °F 85.9 °F 70.0 °F 67% 29.77 in 10.0 mi South 21.9 mph 33.4 mph N/A   Clear
12:54 PM 84.9 °F 89.4 °F 70.0 °F 61% 29.76 in 10.0 mi South 16.1 mph 29.9 mph N/A   Clear
1:54 PM 84.9 °F 88.2 °F 68.0 °F 57% 29.74 in 10.0 mi South 23.0 mph 33.4 mph N/A   Clear
2:54 PM 87.1 °F 89.2 °F 66.0 °F 49% 29.72 in 10.0 mi South 23.0 mph 31.1 mph N/A   Clear
3:54 PM 88.0 °F 89.6 °F 64.9 °F 46% 29.72 in 10.0 mi South 19.6 mph 33.4 mph N/A   Clear
4:54 PM 88.0 °F 89.6 °F 64.9 °F 46% 29.72 in 10.0 mi South 18.4 mph 27.6 mph N/A   Partly Cloudy
5:54 PM 84.9 °F 87.1 °F 66.0 °F 53% 29.72 in 10.0 mi South 15.0 mph 21.9 mph N/A   Clear
6:54 PM 81.0 °F 82.7 °F 64.9 °F 58% 29.75 in 10.0 mi SSE 9.2 mph - N/A   Clear
7:54 PM 80.1 °F 81.9 °F 64.9 °F 60% 29.79 in 10.0 mi South 11.5 mph - N/A Thunderstorm Mostly Cloudy
8:23 PM 69.8 °F - 62.6 °F 78% 29.88 in 10.0 mi NNW 11.5 mph 23.0 mph N/A Thunderstorm Overcast
8:44 PM 68.0 °F - 64.4 °F 88% 29.85 in 10.0 mi North 16.1 mph - 0.00 in Rain , Thunderstorm Light Rain
8:54 PM 66.9 °F - 64.0 °F 90% 29.87 in 10.0 mi NNW 16.1 mph - 0.00 in Rain , Thunderstorm Light Thunderstorms and Rain
9:10 PM 64.4 °F - 62.6 °F 94% 29.93 in 1.8 mi North 12.7 mph - 0.32 in Rain , Thunderstorm Heavy Thunderstorms and Rain
9:21 PM 62.6 °F - 62.6 °F 100% 29.91 in 1.2 mi North 16.1 mph 26.5 mph 0.64 in Rain , Thunderstorm Heavy Thunderstorms and Rain
9:24 PM 62.6 °F - 62.6 °F 100% 29.90 in 2.0 mi NNE 15.0 mph - 0.64 in Rain , Thunderstorm Thunderstorms and Rain
9:26 PM 62.6 °F - 62.6 °F 100% 29.90 in 4.0 mi NNE 13.8 mph - 0.64 in Rain , Thunderstorm Light Thunderstorms and Rain
9:43 PM - - - N/A% - - North - - 0.65 in   Unknown
9:50 PM 64.4 °F - 62.6 °F 94% 29.92 in - North 10.4 mph - 0.68 in Rain , Thunderstorm Light Thunderstorms and Rain
9:54 PM 64.0 °F - 63.0 °F 96% 29.91 in 2.5 mi North 8.1 mph - 0.72 in Rain , Thunderstorm Heavy Thunderstorms and Rain
10:05 PM 62.6 °F - 62.6 °F 100% 29.94 in 3.0 mi North 6.9 mph - 0.07 in Rain , Thunderstorm Heavy Thunderstorms and Rain
10:39 PM 62.6 °F - 57.2 °F 82% 29.95 in 10.0 mi North 10.4 mph - 0.09 in Rain Light Rain
10:54 PM 62.1 °F - 57.0 °F 84% 29.94 in 10.0 mi NNW 15.0 mph - 0.09 in   Overcast
11:23 PM 60.8 °F - 53.6 °F 77% 29.97 in 10.0 mi North 16.1 mph - 0.00 in Rain , Thunderstorm Light Rain
11:38 PM 59.0 °F - 50.0 °F 72% 29.98 in 10.0 mi NNW 13.8 mph 24.2 mph 0.00 in   Overcast
11:54 PM 57.9 °F - 46.9 °F 67% 29.96 in 10.0 mi NNW 18.4 mph 25.3 mph 0.00 in   Overcast